Location: Armagh
(54.3500°N, 6.6670°W)
Time: 02:44:53
(UTC+00:00)

ISS - Pass Details

Date: 09 December 2017
Orbit: 402 x 407 km, 51.6° (Epoch: 21 January)

Event Time Altitude Azimuth Distance (km) Brightness Sun altitude
Rises 17:00:56 0° 258° (WSW) 2,340 1.8 -7.8°
Reaches altitude 10° 17:03:03 10° 253° (WSW) 1,478 0.6 -8.1°
Maximum altitude 17:06:17 52° 176° (S) 515 -3.1 -8.5°
Drops below altitude 10° 17:09:31 10° 99° (E) 1,477 -1.5 -8.9°
Enters shadow 17:09:50 - 98° (E) 1,601 -1.3 -9.0°
